Location: Deep Valley
(39.7548°N, 80.4695°W)
Time: 20:02:35
(UTC+00:00)

Hubble Space Telescope - Visible Passes

Search period start: 29 November 2020 00:00
Search period end: 09 December 2020 00:00
Orbit: 536 x 540 km, 28.5° (Epoch: 29 November)

Date Brightness Start Highest point End Pass type
(mag) Time Alt. Az. Time Alt. Az. Time Alt. Az.
03 Dec 3.6 00:37:46 10° SSW 00:38:14 12° SSW 00:38:14 12° SSW visible
04 Dec 3.3 00:26:45 10° SW 00:28:04 14° SSW 00:28:04 14° SSW visible
04 Dec 3.3 22:36:35 10° S 22:38:02 12° SSE 22:39:29 10° SE visible
05 Dec 3.0 00:15:47 10° SW 00:17:55 16° S 00:17:55 16° S visible
05 Dec 3.3 22:25:10 10° SSW 22:27:07 13° SSE 22:29:03 10° SE visible
06 Dec 2.9 00:04:52 10° SW 00:07:34 17° S 00:07:47 17° S visible
06 Dec 2.9 23:54:01 10° SW 23:56:40 17° S 23:57:41 15° SSE visible
07 Dec 3.1 23:43:12 10° SW 23:45:46 16° S 23:47:39 12° SSE visible
08 Dec 3.3 23:32:27 10° SW 23:34:51 15° S 23:37:15 10° SSE visible
